Lid_Strength_Index
1 1 1 1 1 1 1 0 -0 -0 -0 -0 -0 -0 -1 -1 -1 1 3 1 4 7 6 6 6 8 9 10 11 14 12 12 12 13 14 14 15 13 14 13 14 15 16 16 15 17 19 16 15 13 14 17 17 16
1 1 1 1 1 1 0 -0 -1 -1 -0 -0 -0 -0 -0 -1 -1 -1 4 1 1 5 7 5 5 5 6 7 7 10 11 12 10 11 12 14 15 15 14 17 15 15 13 15 14 14 17 16 17 16 16 18 17 16
1 1 1 1 1 0 0 -0 -1 -1 -1 -0 -0 -0 -0 -1 -1 -0 3 2 3 7 7 8 7 6 6 5 5 9 10 10 11 11 11 13 15 15 16 16 18 15 14 14 14 15 16 16 14 14 16 16 16 16
1 1 1 1 1 1 0 -0 -1 -1 -1 -0 -0 0 0 -0 -1 -0 3 1 2 7 9 9 7 7 6 6 6 5 7 9 10 11 12 13 15 13 16 16 16 15 13 16 17 16 16 15 14 13 14 14 15 16
1 1 1 1 1 0 -0 -0 -1 -1 -1 -0 0 0 0 -0 -1 -0 2 1 1 5 10 11 10 8 7 6 6 6 7 9 10 12 12 13 14 15 17 15 16 14 14 16 16 14 13 13 13 12 13 14 15 16
1 2 2 1 1 0 0 -0 -0 -0 -0 -0 -0 0 -0 -0 -1 3 10 3 1 3 9 13 9 12 9 6 6 7 8 10 10 11 12 13 13 13 15 16 14 14 13 12 13 13 14 15 13 12 13 13 15 16
1 2 2 1 1 0 0 0 -0 -0 0 -0 -0 -0 -0 -1 2 4 9 3 -0 2 8 13 13 10 9 9 10 9 9 10 10 11 12 13 14 12 14 19 15 14 14 14 14 12 13 16 15 13 13 14 15 17
1 2 2 1 1 1 1 0 0 0 0 -0 -0 -0 -1 -1 0 3 2 0 1 6 7 12 14 12 9 12 12 10 11 11 12 13 13 14 13 13 15 17 17 17 15 17 17 15 15 16 16 17 17 16 17 17
2 2 1 1 1 1 1 1 1 0 -0 -0 -0 -0 2 5 6 5 -0 -0 2 5 9 12 15 16 10 11 12 13 11 14 13 14 14 13 16 16 18 18 20 22 21 20 18 18 17 17 18 18 18 18 18 18
1 1 2 2 1 1 1 1 0 -0 -0 -0 3 7 8 5 0 0 4 6 6 7 7 12 15 16 11 13 16 18 18 21 23 18 14 16 19 21 22 23 23 24 23 22 20 20 20 21 20 20 21 21 20 20
1 2 2 2 2 1 1 0 0 0 1 4 7 8 7 -0 6 8 9 9 8 10 8 11 13 13 11 18 19 14 17 23 21 20 20 25 23 21 23 25 25 25 24 25 23 23 23 22 21 21 22 24 23 23
2 2 2 1 1 1 0 0 -0 3 7 6 5 3 5 5 8 9 12 9 10 12 13 13 13 11 12 13 16 16 21 22 24 25 22 22 22 26 27 27 28 28 28 27 26 26 25 25 24 24 25 26 26 26
1 1 1 1 0 0 0 0 0 1 2 8 10 10 8 9 13 17 17 14 13 13 13 14 13 12 13 13 17 14 20 21 20 22 21 24 26 29 30 30 30 30 29 29 28 28 28 28 29 29 28 29 29 29
1 1 1 1 1 1 1 0 -0 1 6 11 10 16 12 14 17 14 21 16 13 14 16 10 14 13 13 15 14 17 18 18 21 22 23 30 30 32 32 33 35 33 32 30 31 30 30 30 31 31 32 32 32 31
1 1 1 2 2 2 1 1 1 2 6 9 12 19 19 21 17 17 16 16 15 15 10 11 12 11 13 14 14 17 18 22 22 23 31 30 31 32 33 34 34 33 32 33 34 33 32 32 32 33 34 33 32 31
-0 2 4 3 3 2 2 3 5 8 13 15 22 21 22 18 20 22 22 18 19 19 11 10 12 14 15 15 17 19 19 22 26 36 33 31 33 33 34 33 33 33 33 34 34 34 32 32 33 36 34 33 32 31
4 10 3 3 2 3 4 8 11 15 16 21 25 29 28 30 27 25 26 25 22 21 12 11 14 16 15 21 25 32 34 36 35 34 32 32 32 33 33 33 33 33 33 34 35 34 35 36 35 31 31 35 35 35
10 7 3 2 5 7 12 12 14 17 21 20 23 26 27 27 30 27 27 25 25 22 21 24 22 27 29 27 33 33 32 32 31 31 32 31 32 31 31 32 32 33 33 34 35 36 35 33 31 32 34 36 33 34
7 6 4 4 6 12 14 15 15 20 22 20 21 22 23 26 26 26 27 26 26 27 28 31 35 36 36 34 34 33 32 31 31 31 31 30 30 30 30 29 30 30 31 35 33 33 32 34 35 34 34 31 31 33
5 5 5 7 9 14 17 18 15 19 24 22 23 24 24 26 26 28 29 29 29 32 36 37 38 36 34 34 33 32 31 29 29 31 31 29 28 28 29 28 29 29 29 30 30 31 32 31 29 31 32 32 32 33
11 11 11 13 17 17 19 19 19 19 21 22 21 22 25 26 29 30 31 29 33 35 36 36 36 33 32 33 31 30 30 28 29 29 30 30 29 28 29 29 29 30 31 31 32 33 32 34 34 35 35 36 36 35
17 12 20 18 18 21 20 19 19 19 21 23 23 24 28 29 31 31 28 33 34 33 33 33 32 32 31 32 31 30 29 28 28 27 28 28 30 30 31 30 30 32 33 35 37 37 37 35 35 35 34 35 33 33
17 18 23 25 24 27 26 20 22 22 24 24 24 28 29 30 29 26 33 32 32 30 30 30 30 29 30 30 29 29 29 29 30 30 30 30 30 30 31 31 31 34 34 33 35 36 36 32 32 33 33 32 33 33
20 28 32 34 32 34 28 28 25 25 24 26 28 30 30 29 28 32 35 34 32 30 31 30 29 30 30 30 32 32 31 29 29 30 29 29 31 31 31 33 34 34 34 34 35 35 33 33 30 31 31 32 32 32
32 37 35 41 36 36 34 32 32 30 31 29 30 31 30 28 34 35 36 34 32 32 32 30 31 31 32 32 32 32 31 31 30 32 32 30 31 33 35 35 36 37 38 36 37 37 36 35 34 33 32 33 33 34
40 37 39 40 38 39 36 37 36 36 33 33 32 30 30 33 36 38 35 33 33 32 33 33 33 33 33 33 33 33 34 34 32 33 35 37 37 38 40 40 40 37 38 41 41 40 41 40 41 41 39 38 36 39
39 38 33 31 35 35 36 34 33 35 38 38 37 33 33 37 38 36 31 29 31 32 32 33 32 33 33 34 33 34 37 40 40 38 40 40 39 41 40 41 40 38 41 42 44 43 42 42 41 40 38 39 40 38
32 32 36 34 36 38 39 37 37 38 37 35 35 38 38 38 39 32 30 29 31 32 33 35 35 34 35 36 39 38 36 38 35 36 38 39 42 42 43 43 41 30 38 39 38 37 40 40 39 35 36 35 33 35
31 30 32 36 36 34 36 36 37 35 33 36 36 37 37 34 33 31 30 31 32 32 34 36 36 40 41 42 43 46 46 41 38 41 42 42 43 39 42 42 43 41 41 43 32 27 28 28 30 31 36 35 33 34
31 32 34 36 37 37 34 34 35 33 32 34 32 32 34 34 33 31 32 34 35 38 41 43 46 46 45 44 43 42 45 46 42 40 42 41 40 42 44 42 40 39 41 44 36 36 31 34 34 39 37 36 36 35
31 31 32 34 35 35 34 33 36 35 36 36 36 37 38 39 34 35 36 42 45 46 43 42 44 47 45 43 44 43 40 42 45 44 45 45 43 42 41 39 37 40 43 43 40 40 36 36 37 37 37 37 36 35
35 40 35 35 34 35 38 40 45 46 43 40 40 43 40 38 38 37 36 40 42 39 38 42 43 37 39 40 45 45 37 40 41 38 39 38 39 38 37 36 37 42 39 35 35 34 35 37 36 35 34 35 35 35
46 45 47 44 40 40 43 44 42 43 43 46 44 49 49 42 38 35 37 41 38 38 40 40 39 41 41 40 39 40 37 39 39 31 27 27 27 27 27 31 33 34 33 32 32 33 34 34 34 34 35 35 35 35